[[{"header":{"parameterUnit":"m.s-1","parameterCategory":1,"la1":30.2991,"la2":30.254,"lo1":-89.0895,"lo2":-89.0444,"dy":0.0017,"dx":0.0017,"nx":28,"ny":28,"refTime":"2024-07-09T21:00:00:Z","depth":0,"parameterNumber":2,"parameterNumberName":"U-component_of_WINDS"},"data":[0,0,0,0,0,0,0,0,0,0,0,0,0,0,0,0,0,0,0,0,0,0,0,0,0,0,0,0,0,0,0,0,0,0,0,0,0,0,0,0,0,0,0,0,0,0,0,0,0,0,0,0,0,0,0,0,0,0,4.9388,4.9388,0,4.9455,4.9455,4.9456,4.9417,4.9415,4.9413,4.9411,4.9481,4.9484,4.9488,0,0,0,0,0,0,0,0,0,0,0,0,0,4.9226,4.923,4.9388,4.9388,4.9389,4.9455,4.9456,4.9456,4.9417,4.9415,4.9413,4.941,4.948,4.9484,4.9488,0,0,0,0,0,0,0,0,0,0,0,0,0,4.9295,4.9231,4.9387,4.9378,4.9377,4.9454,4.9456,4.9457,4.9418,4.9415,4.9412,4.9409,4.9478,4.9484,4.9489,4.958,0,0,4.9506,4.9508,0,0,0,0,0,0,0,0,4.9291,4.9301,4.9378,4.9378,4.9378,4.9424,4.9424,4.9498,4.9418,4.9402,4.9411,4.9408,4.9465,4.9471,4.949,4.9583,4.9586,4.9506,4.9509,4.9512,4.9513,0,0,0,0,0,0,0,4.9287,4.9298,4.9414,4.9379,4.9379,4.937,4.9377,4.9438,4.9449,4.9404,4.9401,4.9409,4.9464,4.9485,4.9491,4.9587,4.9506,4.9511,4.9514,4.9516,4.9758,4.9761,0,0,0,0,0,0,4.9283,4.9294,4.9412,4.9416,4.9327,4.9375,4.9383,4.9413,4.9448,4.9451,4.9412,4.9407,4.9477,4.9485,4.9493,4.9601,4.9512,4.9517,4.952,4.9755,4.9758,4.9762,0,0,0,0,0,0,4.9279,4.9293,4.9409,4.9355,4.9369,4.9381,4.9415,4.9415,4.9436,4.9454,4.9456,4.9431,4.9475,4.9486,4.9558,4.9603,4.9519,4.9524,4.9751,4.9756,4.976,4.9818,0,0,0,0,0,0,4.9275,4.9292,4.9327,4.9356,4.9372,4.9473,4.9418,4.9419,4.9445,4.944,4.9472,4.9475,4.9473,4.955,4.9564,4.9609,4.9528,4.9747,4.9753,4.9759,4.9812,4.9824,4.9834,0,0,0,0,0,4.9269,4.9341,4.9329,4.9343,4.9415,4.9476,4.9485,4.9481,4.9449,4.9484,4.9495,4.9474,4.9597,4.9558,4.9573,4.962,4.9744,4.9751,4.9758,4.9807,4.9821,4.9834,0,0,0,0,0,0,4.9316,4.9344,4.9331,4.9414,4.9443,4.9469,4.9512,4.9497,4.9535,4.9529,4.9523,4.9531,4.9606,4.9621,4.9578,4.971,4.9665,4.9676,4.9697,4.9711,4.9722,4.9716,4.9533,0,0,0,0,0,4.9337,4.9383,4.9405,4.9476,4.9491,4.95,4.9526,4.9521,4.955,4.9562,4.9579,4.9609,4.9654,4.9684,4.9726,4.9815,4.982,4.9855,4.9866,4.9875,4.9883,4.993,4.9945,4.9785,4.9785,4.9785,0,0,4.9378,4.9399,4.9429,4.9486,4.9508,4.9556,4.951,4.9563,4.9599,4.957,4.9639,4.9653,4.9686,4.9767,4.9803,4.9781,4.9929,4.9884,4.9891,4.9894,4.9939,4.9954,4.9967,4.979,4.9789,4.9788,0,0,4.9479,4.95,4.9561,4.9584,4.9617,4.9622,4.9637,4.9666,4.9674,4.9743,4.9722,4.9766,4.9844,4.9868,4.989,5.0001,4.9982,5.0016,5.0073,5.0118,5.0131,5.0142,5.018,5.0194,5.0024,5.0025,5.0025,0,4.9527,4.9599,4.9595,4.9649,4.9675,4.9652,4.9713,4.9736,4.9781,4.98,4.9775,4.9872,4.9893,4.9978,5.0005,5.0025,5.0041,5.0011,5.013,5.0141,5.0151,5.0187,5.0202,5.0028,5.0028,5.0027,5.0027,0,4.9655,4.9706,4.9751,4.9795,4.9826,4.9884,4.9889,4.9921,4.9914,4.9922,4.9993,5.0017,5.0064,5.0084,5.0078,5.0169,5.0154,5.013,5.0084,5.017,5.0204,5.0218,5.0033,5.0032,5.0031,5.003,0,0,4.9785,4.9827,4.9844,4.9863,4.9899,4.9938,4.9996,5.0041,5.0068,5.0101,5.0148,5.0216,5.0193,5.0219,5.0215,5.0256,5.0341,5.0226,5.0227,5.0245,5.0441,5.0457,5.0474,5.033,5.0332,5.0334,5.0438,0,4.9887,4.9986,4.9984,5.0077,5.0123,5.0102,5.0152,5.0179,5.0189,5.023,5.0241,5.0287,5.0255,5.027,5.031,5.0322,5.038,5.0315,5.0373,5.0375,5.0363,5.0491,5.0509,5.0605,5.0451,5.0453,5.0455,0,5.0018,5.0054,5.0151,5.018,5.0199,5.0244,5.0285,5.0325,5.0356,5.036,5.0389,5.0379,5.0438,5.0393,5.0473,5.0429,5.0453,5.0463,5.0466,5.047,5.0418,5.0496,5.0636,5.0649,5.0476,5.0474,5.0473,0,5.0101,5.0175,5.0242,5.026,5.0295,5.0327,5.0344,5.0372,5.0399,5.0436,5.0454,5.0497,5.0521,5.0555,5.0557,5.0524,5.0638,5.0593,5.0642,5.0642,5.0664,5.0662,5.0807,5.0684,5.0684,5.0683,5.0683,0,5.0213,5.0272,5.028,5.0321,5.0387,5.0385,5.0451,5.0464,5.049,5.0533,5.0519,5.056,5.0562,5.0604,5.0607,5.0672,5.0684,5.0688,5.0687,5.0688,5.0687,5.0702,5.0694,5.0687,5.0686,5.0686,5.0685,0,5.0316,5.0323,5.0395,5.0423,5.0431,5.0479,5.0503,5.0542,5.0551,5.0606,5.0619,5.0632,5.0681,5.0688,5.0746,5.0747,5.0825,5.0819,5.0814,5.0812,5.086,5.0855,5.1018,5.1038,5.0904,5.0905,5.0906,0,5.0385,5.0431,5.0464,5.0492,5.051,5.0555,5.0583,5.0584,5.0613,5.0652,5.0687,5.0735,5.0772,5.0852,5.0867,5.0911,5.0904,5.0958,5.091,5.0909,5.0902,5.0899,5.0902,5.0967,5.0968,5.0969,5.097,0,5.0508,5.051,5.055,5.0592,5.0626,5.0659,5.0691,5.0715,5.0719,5.0754,5.0803,5.0833,5.0891,5.0938,5.0982,5.0999,5.0985,5.0986,5.0999,5.0998,5.0993,5.0994,5.0837,5.0981,5.098,5.0979,5.0979,5.0978,5.0595,5.0634,5.0663,5.0709,5.0733,5.0762,5.08,5.0814,5.0855,5.0902,5.0901,5.0955,5.0986,5.1043,5.1063,5.1106,5.1088,5.1108,5.1112,5.1116,5.112,5.0988,5.1114,5.1114,5.1113,5.1113,5.1113,0,5.0715,5.0733,5.0775,5.0819,5.0855,5.084,5.0874,5.0905,5.0953,5.0982,5.102,5.1077,5.1123,5.1142,5.1187,5.1218,5.1212,5.1229,5.1226,5.123,5.1134,5.1117,5.1233,5.1233,5.1233,5.1233,5.1232,5.1232,5.0781,5.0846,5.0851,5.0927,5.0945,5.0998,5.1019,5.1046,5.1069,5.1133,5.1171,5.1184,5.1209,5.1256,5.1297,5.1302,5.1318,5.1337,5.1339,5.1249,5.1236,5.1225,5.1209,5.1341,5.1341,5.143,5.1431,5.1431]},{"header":{"parameterUnit":"m.s-1","parameterCategory":1,"la1":30.2991,"la2":30.254,"lo1":-89.0895,"lo2":-89.0444,"dy":0.0017,"dx":0.0017,"nx":28,"ny":28,"refTime":"2024-07-09T21:00:00:Z","depth":0,"parameterNumber":3,"parameterNumberName":"V-component_of_WINDS"},"data":[0,0,0,0,0,0,0,0,0,0,0,0,0,0,0,0,0,0,0,0,0,0,0,0,0,0,0,0,0,0,0,0,0,0,0,0,0,0,0,0,0,0,0,0,0,0,0,0,0,0,0,0,0,0,0,0,0,0,4.4815,4.4816,0,4.4941,4.4942,4.4943,4.4982,4.4982,4.4981,4.498,4.5102,4.5105,4.5109,0,0,0,0,0,0,0,0,0,0,0,0,0,4.46,4.4604,4.4814,4.4816,4.4818,4.494,4.4942,4.4944,4.4982,4.4982,4.4981,4.498,4.5101,4.5105,4.511,0,0,0,0,0,0,0,0,0,0,0,0,0,4.4706,4.4605,4.4814,4.4852,4.4857,4.494,4.4942,4.4944,4.4982,4.4982,4.4981,4.498,4.5099,4.5105,4.511,4.5163,0,0,4.5128,4.513,0,0,0,0,0,0,0,0,4.47,4.4714,4.4845,4.4849,4.4855,4.4945,4.4911,4.5017,4.4983,4.4934,4.498,4.4979,4.505,4.5059,4.5085,4.5169,4.5174,4.5128,4.5131,4.5134,4.5136,0,0,0,0,0,0,0,4.4693,4.4709,4.4864,4.4847,4.4853,4.486,4.4874,4.4931,4.4995,4.4939,4.4942,4.4956,4.5052,4.5079,4.5088,4.5176,4.5128,4.5133,4.5136,4.5139,4.5309,4.531,0,0,0,0,0,0,4.468,4.4702,4.486,4.4868,4.4774,4.4865,4.4881,4.4917,4.4995,4.5006,4.4957,4.4958,4.507,4.5081,4.5092,4.5159,4.5134,4.5139,4.5142,4.5308,4.5309,4.531,0,0,0,0,0,0,4.4675,4.4694,4.4855,4.4786,4.4807,4.4869,4.491,4.492,4.4947,4.5009,4.502,4.4973,4.507,4.5084,4.5146,4.5164,4.5142,4.5147,4.5306,4.5308,4.531,4.5293,0,0,0,0,0,0,4.4669,4.4692,4.4714,4.4787,4.4811,4.4908,4.4911,4.4923,4.4957,4.496,4.5027,4.5037,4.507,4.5137,4.5151,4.5171,4.5151,4.5305,4.5307,4.5309,4.5292,4.5294,4.5296,0,0,0,0,0,4.4661,4.4703,4.4715,4.4734,4.4841,4.4909,4.4923,4.4962,4.4959,4.4981,4.5021,4.5035,4.516,4.5143,4.5159,4.5181,4.5304,4.5306,4.5309,4.5292,4.5294,4.5296,0,0,0,0,0,0,4.4628,4.4713,4.4728,4.4795,4.4845,4.4916,4.4945,4.4963,4.5014,4.5013,4.5057,4.5072,4.513,4.5162,4.5141,4.5236,4.5232,4.5238,4.5213,4.5216,4.5218,4.5208,4.5156,0,0,0,0,0,4.463,4.4681,4.4751,4.4803,4.4828,4.4882,4.4913,4.4939,4.4992,4.5013,4.5057,4.5106,4.5156,4.5188,4.5237,4.5297,4.5312,4.5321,4.5322,4.5323,4.5327,4.5361,4.5365,4.5318,4.5318,4.5318,0,0,4.4631,4.4684,4.4713,4.4798,4.484,4.489,4.4899,4.4952,4.4989,4.502,4.5081,4.5115,4.5172,4.5233,4.5262,4.5262,4.5344,4.5326,4.5327,4.5331,4.5364,4.5368,4.5372,4.532,4.532,4.5319,0,0,4.466,4.4705,4.4754,4.4796,4.4861,4.4897,4.4908,4.4977,4.5002,4.5065,4.5089,4.5132,4.5218,4.5258,4.5289,4.5333,4.5348,4.5348,4.5356,4.5388,4.5392,4.5395,4.541,4.5415,4.5352,4.5352,4.5352,0,4.4653,4.4732,4.4776,4.4828,4.4864,4.4897,4.4945,4.4984,4.506,4.5083,4.5082,4.519,4.5231,4.5301,4.5312,4.5337,4.535,4.534,4.5388,4.5392,4.5396,4.5411,4.5416,4.5352,4.5352,4.5352,4.5352,0,4.472,4.4774,4.4805,4.4881,4.492,4.4969,4.5019,4.5053,4.5076,4.5111,4.5174,4.5224,4.5284,4.5303,4.5324,4.5376,4.5374,4.538,4.5376,4.5399,4.5414,4.542,4.5351,4.5351,4.5351,4.5351,0,0,4.473,4.4831,4.4841,4.4876,4.495,4.4992,4.5042,4.5104,4.5132,4.5183,4.5225,4.5297,4.5304,4.5339,4.5365,4.5394,4.5425,4.5396,4.5398,4.5399,4.5484,4.5478,4.5484,4.5435,4.5437,4.5438,4.5479,0,4.4767,4.4862,4.4903,4.4978,4.5027,4.506,4.5104,4.5153,4.5187,4.5232,4.5269,4.5319,4.5324,4.5346,4.5376,4.5415,4.5442,4.5412,4.5473,4.5474,4.5457,4.5492,4.5486,4.5523,4.5485,4.5486,4.5486,0,4.4824,4.4878,4.4959,4.5027,4.5049,4.5088,4.5148,4.5192,4.5247,4.527,4.531,4.5335,4.5387,4.5381,4.5452,4.5431,4.5458,4.5481,4.5483,4.5489,4.5481,4.5498,4.5535,4.554,4.5496,4.5495,4.5494,0,4.4822,4.4916,4.4976,4.5005,4.5086,4.5113,4.5147,4.5202,4.5237,4.5288,4.531,4.5366,4.5396,4.5438,4.5476,4.5468,4.5543,4.554,4.5562,4.5561,4.5575,4.5574,4.5616,4.5594,4.5594,4.5594,4.5594,0,4.4859,4.4907,4.4977,4.5013,4.5067,4.5113,4.5164,4.5201,4.525,4.5292,4.5323,4.5362,4.5412,4.5456,4.5487,4.554,4.5553,4.5572,4.5579,4.5569,4.5566,4.5586,4.5585,4.5595,4.5595,4.5595,4.5594,0,4.4866,4.4915,4.4983,4.5056,4.5075,4.5111,4.5172,4.5208,4.5244,4.5298,4.5313,4.5369,4.5423,4.5467,4.5536,4.5557,4.5613,4.5621,4.5595,4.5598,4.5617,4.5615,4.5674,4.5683,4.5655,4.5655,4.5655,0,4.4887,4.4924,4.5002,4.5034,4.5069,4.5121,4.5157,4.5203,4.5239,4.5306,4.5333,4.539,4.5438,4.5523,4.5568,4.5621,4.5631,4.5648,4.5639,4.5627,4.563,4.5627,4.5631,4.5648,4.5648,4.5648,4.5648,0,4.4917,4.4939,4.4992,4.5053,4.5096,4.5145,4.5195,4.5219,4.5274,4.5312,4.537,4.5407,4.548,4.5536,4.5594,4.5627,4.5646,4.5651,4.5659,4.5648,4.5631,4.564,4.5597,4.5649,4.5649,4.5649,4.5649,4.5649,4.4931,4.4966,4.5026,4.5083,4.5126,4.5172,4.521,4.5252,4.5302,4.5367,4.539,4.5449,4.5502,4.5584,4.5617,4.5662,4.5663,4.5674,4.5677,4.5679,4.5677,4.5625,4.5672,4.5672,4.5672,4.5672,4.5673,0,4.4962,4.5003,4.5055,4.5125,4.517,4.5188,4.5244,4.5279,4.5331,4.5381,4.5429,4.5494,4.5548,4.5598,4.5654,4.568,4.5691,4.5693,4.5691,4.5699,4.5673,4.5661,4.5684,4.5684,4.5684,4.5684,4.5684,4.5684,4.4983,4.5044,4.5073,4.5155,4.5195,4.5255,4.5285,4.5327,4.5368,4.5441,4.5487,4.552,4.557,4.563,4.568,4.5693,4.5712,4.5712,4.5727,4.5702,4.57,4.5699,4.5687,4.5716,4.5716,4.5749,4.5749,4.5749]}]]